When you browse on this site, cookies collect data to enhance your experience and personalize the content and advertising you see.
Visit our Privacy Policy to learn more. By continuing to use the site, you agree to this use of cookies and data.
  • Em Portugal
  • Lista de países
  • Para 7 dias
  • Temperatura da água
  • Mapa do tempo
  • Widgets de tempo
  • user-avatar
    Iniciar Sessão

    Previsão horária em Albani

    Hoje, 18 Novembro, Segunda-feira

    Tempo Temperatura Precipitação Vento Pressão Humidade
    00:00 +16°C° 0 mm 1 m/s 760 mmHg 89%
    01:00 +16°C° 0 mm 1 m/s 760 mmHg 89%
    02:00 +15°C° 0 mm 0 m/s 759 mmHg 90%
    03:00 +15°C° 0 mm 1 m/s 760 mmHg 91%
    04:00 +14°C° 0 mm 1 m/s 760 mmHg 93%
    05:00 +14°C° 0 mm 1 m/s 760 mmHg 94%
    06:00 +15°C° 0 mm 1 m/s 760 mmHg 89%
    07:00 +18°C° 0 mm 1 m/s 760 mmHg 83%
    08:00 +19°C° 0 mm 1 m/s 760 mmHg 77%
    09:00 +21°C° 0 mm 1 m/s 760 mmHg 71%
    10:00 +23°C° 0 mm 1 m/s 760 mmHg 65%
    11:00 +24°C° 0 mm 2 m/s 760 mmHg 58%
    12:00 +24°C° 0 mm 2 m/s 759 mmHg 60%
    13:00 +24°C° 0 mm 3 m/s 759 mmHg 61%
    14:00 +23°C° 0 mm 4 m/s 758 mmHg 63%
    15:00 +22°C° 0 mm 3 m/s 758 mmHg 67%
    16:00 +21°C° 0 mm 3 m/s 758 mmHg 71%
    17:00 +20°C° 0 mm 3 m/s 758 mmHg 75%
    18:00 +19°C° 0 mm 3 m/s 758 mmHg 82%
    19:00 +18°C° 0 mm 3 m/s 758 mmHg 88%
    20:00 +16°C° 0 mm 2 m/s 758 mmHg 95%
    21:00 +17°C° 0 mm 2 m/s 758 mmHg 94%
    22:00 +17°C° 0 mm 2 m/s 757 mmHg 93%
    23:00 +17°C° 0 mm 2 m/s 757 mmHg 92%

    Amanhã, 19 Novembro, Terça-feira

    Tempo Temperatura Precipitação Vento Pressão Humidade
    00:00 +17°C° 0 mm 2 m/s 756 mmHg 91%
    01:00 +17°C° 0 mm 2 m/s 756 mmHg 90%
    02:00 +17°C° 0 mm 2 m/s 755 mmHg 90%
    03:00 +17°C° 0 mm 2 m/s 755 mmHg 89%
    04:00 +17°C° 0 mm 2 m/s 755 mmHg 89%
    05:00 +17°C° 0 mm 2 m/s 755 mmHg 89%
    06:00 +19°C° 0 mm 1 m/s 754 mmHg 82%
    07:00 +20°C° 0 mm 1 m/s 754 mmHg 76%
    08:00 +21°C° 0 mm 1 m/s 754 mmHg 70%
    09:00 +22°C° 0 mm 1 m/s 753 mmHg 68%
    10:00 +21°C° 0 mm 2 m/s 753 mmHg 66%
    11:00 +22°C° 0 mm 3 m/s 753 mmHg 64%
    12:00 +21°C° 0 mm 4 m/s 752 mmHg 68%
    13:00 +20°C° 0 mm 5 m/s 752 mmHg 72%
    14:00 +19°C° 0 mm 6 m/s 751 mmHg 76%
    15:00 +19°C° 0 mm 6 m/s 751 mmHg 72%
    16:00 +19°C° 0 mm 5 m/s 751 mmHg 68%
    17:00 +17°C° 0 mm 5 m/s 751 mmHg 65%
    18:00 +16°C° 0 mm 5 m/s 751 mmHg 69%
    19:00 +15°C° 0 mm 5 m/s 751 mmHg 74%
    20:00 +13°C° 0 mm 5 m/s 751 mmHg 79%
    21:00 +13°C° 0 mm 5 m/s 751 mmHg 81%
    22:00 +12°C° 0 mm 5 m/s 752 mmHg 84%
    23:00 +12°C° 0 mm 5 m/s 752 mmHg 87%

    Depois de amanhã, 20 Novembro, Quarta-feira

    Tempo Temperatura Precipitação Vento Pressão Humidade
    00:00 +12°C° 0 mm 5 m/s 751 mmHg 82%
    01:00 +13°C° 0 mm 5 m/s 751 mmHg 78%
    02:00 +13°C° 0 mm 5 m/s 750 mmHg 73%
    03:00 +13°C° 0.4 mm 6 m/s 751 mmHg 78%
    04:00 +11°C° 0.4 mm 6 m/s 751 mmHg 82%
    05:00 +11°C° 0.4 mm 7 m/s 751 mmHg 86%
    06:00 +11°C° 0.5 mm 8 m/s 752 mmHg 82%
    07:00 +12°C° 0.5 mm 8 m/s 752 mmHg 77%
    08:00 +12°C° 0.5 mm 9 m/s 752 mmHg 72%
    09:00 +13°C° 0.3 mm 9 m/s 753 mmHg 66%
    10:00 +15°C° 0.3 mm 9 m/s 754 mmHg 61%
    11:00 +16°C° 0.3 mm 9 m/s 755 mmHg 56%
    12:00 +16°C° 0.1 mm 9 m/s 755 mmHg 54%
    13:00 +16°C° 0.1 mm 8 m/s 755 mmHg 53%
    14:00 +17°C° 0.1 mm 8 m/s 755 mmHg 51%
    15:00 +16°C° 0 mm 7 m/s 756 mmHg 52%
    16:00 +16°C° 0 mm 7 m/s 757 mmHg 53%
    17:00 +15°C° 0 mm 6 m/s 757 mmHg 55%
    18:00 +14°C° 0 mm 6 m/s 758 mmHg 58%
    19:00 +13°C° 0 mm 5 m/s 758 mmHg 62%
    20:00 +12°C° 0 mm 4 m/s 759 mmHg 65%
    21:00 +12°C° 0 mm 4 m/s 759 mmHg 67%
    22:00 +11°C° 0 mm 3 m/s 759 mmHg 70%
    23:00 +10°C° 0 mm 3 m/s 760 mmHg 72%

    21 Novembro, Quinta-feira

    Tempo Temperatura Precipitação Vento Pressão Humidade
    00:00 +10°C° 0 mm 3 m/s 759 mmHg 75%
    01:00 +9°C° 0 mm 3 m/s 759 mmHg 77%
    02:00 +8°C° 0 mm 3 m/s 759 mmHg 80%
    03:00 +8°C° 0 mm 3 m/s 759 mmHg 80%
    04:00 +8°C° 0 mm 3 m/s 759 mmHg 80%
    05:00 +8°C° 0 mm 3 m/s 759 mmHg 80%
    06:00 +10°C° 0 mm 4 m/s 759 mmHg 73%
    07:00 +13°C° 0 mm 4 m/s 760 mmHg 65%
    08:00 +15°C° 0 mm 4 m/s 760 mmHg 57%
    09:00 +16°C° 0 mm 5 m/s 760 mmHg 53%
    10:00 +19°C° 0 mm 5 m/s 760 mmHg 49%
    11:00 +20°C° 0 mm 5 m/s 760 mmHg 45%
    12:00 +20°C° 0 mm 6 m/s 759 mmHg 44%
    13:00 +21°C° 0 mm 6 m/s 759 mmHg 44%
    14:00 +22°C° 0 mm 7 m/s 758 mmHg 43%
    15:00 +21°C° 0 mm 7 m/s 758 mmHg 49%
    16:00 +20°C° 0 mm 8 m/s 758 mmHg 54%
    17:00 +17°C° 0 mm 8 m/s 758 mmHg 60%
    18:00 +16°C° 0 mm 8 m/s 758 mmHg 64%
    19:00 +15°C° 0 mm 7 m/s 759 mmHg 68%
    20:00 +14°C° 0 mm 6 m/s 759 mmHg 72%
    21:00 +14°C° 0 mm 6 m/s 759 mmHg 75%
    22:00 +13°C° 0 mm 5 m/s 760 mmHg 78%
    23:00 +13°C° 0 mm 4 m/s 760 mmHg 81%

    22 Novembro, Sexta-feira

    Tempo Temperatura Precipitação Vento Pressão Humidade
    00:00 +12°C° 0 mm 4 m/s 759 mmHg 83%
    01:00 +12°C° 0 mm 3 m/s 759 mmHg 84%
    02:00 +12°C° 0 mm 3 m/s 759 mmHg 85%
    03:00 +12°C° 0 mm 3 m/s 759 mmHg 86%
    04:00 +12°C° 0 mm 3 m/s 759 mmHg 86%
    05:00 +12°C° 0 mm 3 m/s 759 mmHg 87%
    06:00 +14°C° 0 mm 3 m/s 760 mmHg 80%
    07:00 +17°C° 0 mm 3 m/s 760 mmHg 72%
    08:00 +19°C° 0 mm 3 m/s 760 mmHg 65%
    09:00 +20°C° 0.1 mm 3 m/s 760 mmHg 63%
    10:00 +20°C° 0.1 mm 4 m/s 761 mmHg 60%
    11:00 +21°C° 0.1 mm 4 m/s 761 mmHg 57%
    12:00 +21°C° 0 mm 5 m/s 760 mmHg 58%
    13:00 +21°C° 0 mm 5 m/s 760 mmHg 59%
    14:00 +21°C° 0 mm 5 m/s 760 mmHg 59%
    15:00 +20°C° 0 mm 5 m/s 760 mmHg 61%
    16:00 +20°C° 0 mm 5 m/s 760 mmHg 62%
    17:00 +19°C° 0 mm 5 m/s 760 mmHg 63%
    18:00 +17°C° 0 mm 4 m/s 761 mmHg 68%
    19:00 +16°C° 0 mm 3 m/s 761 mmHg 74%
    20:00 +13°C° 0 mm 3 m/s 762 mmHg 79%
    21:00 +13°C° 0 mm 3 m/s 762 mmHg 79%
    22:00 +13°C° 0 mm 2 m/s 762 mmHg 80%
    23:00 +12°C° 0 mm 2 m/s 762 mmHg 80%

    23 Novembro, Sábado

    Tempo Temperatura Precipitação Vento Pressão Humidade
    00:00 +12°C° 0 mm 2 m/s 762 mmHg 81%
    01:00 +10°C° 0 mm 2 m/s 762 mmHg 82%
    02:00 +11°C° 0 mm 1 m/s 761 mmHg 84%
    03:00 +11°C° 0 mm 1 m/s 762 mmHg 85%
    04:00 +10°C° 0 mm 1 m/s 762 mmHg 86%
    05:00 +10°C° 0 mm 1 m/s 762 mmHg 87%
    06:00 +12°C° 0 mm 2 m/s 762 mmHg 77%
    07:00 +15°C° 0 mm 2 m/s 762 mmHg 67%
    08:00 +17°C° 0 mm 2 m/s 762 mmHg 57%
    09:00 +19°C° 0 mm 2 m/s 761 mmHg 52%
    10:00 +21°C° 0 mm 2 m/s 761 mmHg 46%
    11:00 +22°C° 0 mm 3 m/s 761 mmHg 41%
    12:00 +22°C° 0 mm 3 m/s 760 mmHg 44%
    13:00 +21°C° 0 mm 4 m/s 759 mmHg 47%
    14:00 +21°C° 0 mm 5 m/s 759 mmHg 50%
    15:00 +20°C° 0 mm 4 m/s 759 mmHg 52%
    16:00 +19°C° 0 mm 4 m/s 758 mmHg 55%
    17:00 +19°C° 0 mm 4 m/s 758 mmHg 58%
    18:00 +17°C° 0 mm 3 m/s 758 mmHg 64%
    19:00 +14°C° 0 mm 3 m/s 759 mmHg 71%
    20:00 +13°C° 0 mm 2 m/s 759 mmHg 77%
    21:00 +13°C° 0 mm 2 m/s 759 mmHg 79%
    22:00 +12°C° 0 mm 2 m/s 758 mmHg 82%
    23:00 +12°C° 0 mm 1 m/s 758 mmHg 84%
    Mostrar mais